When you browse on this site, cookies collect data to enhance your experience and personalize the content and advertising you see.
Visit our Privacy Policy to learn more. By continuing to use the site, you agree to this use of cookies and data.
  • In Austria
  • List of Countries
  • For 7 days
  • Water Temperature
  • Weather Map
  • News
  • Weather Widgets
  • user-avatar
    Login

    Hourly Weather Tezontepec

    Today, 6 June, Saturday

    Time Temperature Precipitation Wind Pressure Humidity
    00:00 +15°C° 0 mm 1 mps 576 mmHg 84%
    01:00 +14°C° 0 mm 1 mps 575 mmHg 86%
    02:00 +13°C° 0 mm 0 mps 574 mmHg 87%
    03:00 +13°C° 0 mm 0 mps 574 mmHg 87%
    04:00 +12°C° 0 mm 0 mps 574 mmHg 87%
    05:00 +12°C° 0 mm 0 mps 575 mmHg 87%
    06:00 +14°C° 0 mm 0 mps 576 mmHg 76%
    07:00 +16°C° 0 mm 0 mps 577 mmHg 64%
    08:00 +18°C° 0 mm 0 mps 578 mmHg 52%
    09:00 +22°C° 0 mm 1 mps 578 mmHg 45%
    10:00 +24°C° 0 mm 2 mps 579 mmHg 39%
    11:00 +25°C° 0 mm 2 mps 579 mmHg 32%
    12:00 +26°C° 0 mm 3 mps 579 mmHg 30%
    13:00 +27°C° 0 mm 5 mps 579 mmHg 28%
    14:00 +28°C° 0 mm 6 mps 578 mmHg 26%
    15:00 +26°C° 0 mm 6 mps 578 mmHg 32%
    16:00 +24°C° 0 mm 6 mps 577 mmHg 38%
    17:00 +23°C° 0 mm 6 mps 577 mmHg 44%
    18:00 +21°C° 0.1 mm 5 mps 577 mmHg 54%
    19:00 +20°C° 0.1 mm 4 mps 577 mmHg 63%
    20:00 +18°C° 0.1 mm 3 mps 577 mmHg 72%
    21:00 +17°C° 0 mm 2 mps 576 mmHg 74%
    22:00 +17°C° 0 mm 2 mps 576 mmHg 75%
    23:00 +16°C° 0 mm 1 mps 576 mmHg 77%

    Tomorrow, 7 June, Sunday

    Time Temperature Precipitation Wind Pressure Humidity
    00:00 +16°C° 0 mm 1 mps 576 mmHg 76%
    01:00 +15°C° 0 mm 1 mps 575 mmHg 75%
    02:00 +15°C° 0 mm 1 mps 575 mmHg 74%
    03:00 +15°C° 0 mm 1 mps 575 mmHg 74%
    04:00 +15°C° 0 mm 1 mps 575 mmHg 75%
    05:00 +15°C° 0 mm 1 mps 575 mmHg 75%
    06:00 +16°C° 0 mm 1 mps 576 mmHg 68%
    07:00 +19°C° 0 mm 1 mps 577 mmHg 61%
    08:00 +21°C° 0 mm 1 mps 577 mmHg 55%
    09:00 +23°C° 0 mm 2 mps 578 mmHg 48%
    10:00 +25°C° 0 mm 2 mps 579 mmHg 41%
    11:00 +26°C° 0 mm 2 mps 579 mmHg 34%
    12:00 +26°C° 0 mm 3 mps 579 mmHg 34%
    13:00 +26°C° 0 mm 3 mps 578 mmHg 34%
    14:00 +26°C° 0 mm 3 mps 577 mmHg 34%
    15:00 +25°C° 0.1 mm 3 mps 577 mmHg 41%
    16:00 +24°C° 0.1 mm 3 mps 576 mmHg 47%
    17:00 +21°C° 0.1 mm 2 mps 576 mmHg 53%
    18:00 +21°C° 0.3 mm 2 mps 576 mmHg 57%
    19:00 +21°C° 0.3 mm 1 mps 576 mmHg 61%
    20:00 +20°C° 0.3 mm 1 mps 576 mmHg 65%
    21:00 +20°C° 0 mm 1 mps 576 mmHg 66%
    22:00 +19°C° 0 mm 1 mps 576 mmHg 68%
    23:00 +19°C° 0 mm 1 mps 576 mmHg 69%

    Day after tomorrow, 8 June, Monday

    Time Temperature Precipitation Wind Pressure Humidity
    00:00 +18°C° 0 mm 1 mps 576 mmHg 71%
    01:00 +18°C° 0 mm 1 mps 575 mmHg 72%
    02:00 +16°C° 0 mm 1 mps 575 mmHg 73%
    03:00 +16°C° 0 mm 1 mps 575 mmHg 75%
    04:00 +16°C° 0 mm 1 mps 575 mmHg 76%
    05:00 +15°C° 0 mm 1 mps 575 mmHg 78%
    06:00 +18°C° 0 mm 1 mps 576 mmHg 70%
    07:00 +19°C° 0 mm 2 mps 577 mmHg 63%
    08:00 +21°C° 0 mm 2 mps 578 mmHg 56%
    09:00 +24°C° 0 mm 2 mps 579 mmHg 49%
    10:00 +25°C° 0 mm 2 mps 579 mmHg 42%
    11:00 +27°C° 0 mm 3 mps 579 mmHg 34%
    12:00 +27°C° 0 mm 3 mps 579 mmHg 33%
    13:00 +28°C° 0 mm 3 mps 579 mmHg 31%
    14:00 +28°C° 0 mm 3 mps 579 mmHg 29%
    15:00 +27°C° 0.1 mm 2 mps 578 mmHg 33%
    16:00 +26°C° 0.1 mm 2 mps 578 mmHg 36%
    17:00 +26°C° 0.1 mm 2 mps 577 mmHg 39%
    18:00 +24°C° 0.2 mm 2 mps 577 mmHg 47%
    19:00 +21°C° 0.2 mm 2 mps 577 mmHg 54%
    20:00 +20°C° 0.2 mm 2 mps 577 mmHg 62%
    21:00 +19°C° 0.1 mm 2 mps 577 mmHg 64%
    22:00 +20°C° 0.1 mm 1 mps 577 mmHg 66%
    23:00 +19°C° 0.1 mm 1 mps 577 mmHg 68%

    9 June, Tuesday

    Time Temperature Precipitation Wind Pressure Humidity
    00:00 +19°C° 0 mm 1 mps 577 mmHg 69%
    01:00 +19°C° 0 mm 1 mps 576 mmHg 70%
    02:00 +18°C° 0 mm 1 mps 576 mmHg 71%
    03:00 +18°C° 0 mm 1 mps 576 mmHg 72%
    04:00 +15°C° 0 mm 0 mps 576 mmHg 74%
    05:00 +15°C° 0 mm 0 mps 576 mmHg 76%
    06:00 +19°C° 0 mm 1 mps 577 mmHg 66%
    07:00 +21°C° 0 mm 1 mps 578 mmHg 57%
    08:00 +23°C° 0 mm 1 mps 579 mmHg 47%
    09:00 +25°C° 0 mm 2 mps 580 mmHg 39%
    10:00 +27°C° 0 mm 3 mps 580 mmHg 31%
    11:00 +29°C° 0 mm 4 mps 581 mmHg 23%
    12:00 +29°C° 0 mm 6 mps 580 mmHg 22%
    13:00 +29°C° 0 mm 7 mps 580 mmHg 21%
    14:00 +31°C° 0 mm 8 mps 580 mmHg 21%
    15:00 +28°C° 0 mm 8 mps 579 mmHg 22%
    16:00 +27°C° 0 mm 7 mps 579 mmHg 23%
    17:00 +26°C° 0 mm 7 mps 578 mmHg 25%
    18:00 +23°C° 0 mm 6 mps 578 mmHg 32%
    19:00 +21°C° 0 mm 4 mps 577 mmHg 39%
    20:00 +19°C° 0 mm 2 mps 577 mmHg 46%
    21:00 +18°C° 0 mm 2 mps 577 mmHg 50%
    22:00 +18°C° 0 mm 2 mps 577 mmHg 55%
    23:00 +18°C° 0 mm 1 mps 577 mmHg 59%

    10 June, Wednesday

    Time Temperature Precipitation Wind Pressure Humidity
    00:00 +16°C° 0 mm 1 mps 577 mmHg 61%
    01:00 +16°C° 0 mm 1 mps 576 mmHg 64%
    02:00 +16°C° 0 mm 1 mps 576 mmHg 66%
    03:00 +15°C° 0 mm 1 mps 576 mmHg 68%
    04:00 +15°C° 0 mm 1 mps 576 mmHg 71%
    05:00 +14°C° 0 mm 1 mps 576 mmHg 73%
    06:00 +16°C° 0 mm 1 mps 577 mmHg 64%
    07:00 +18°C° 0 mm 2 mps 578 mmHg 55%
    08:00 +20°C° 0 mm 2 mps 579 mmHg 46%
    09:00 +22°C° 0 mm 3 mps 580 mmHg 41%
    10:00 +23°C° 0 mm 4 mps 580 mmHg 36%
    11:00 +26°C° 0 mm 4 mps 581 mmHg 31%
    12:00 +26°C° 0 mm 5 mps 581 mmHg 33%
    13:00 +26°C° 0 mm 6 mps 580 mmHg 35%
    14:00 +26°C° 0 mm 7 mps 580 mmHg 38%
    15:00 +24°C° 0 mm 7 mps 579 mmHg 42%
    16:00 +23°C° 0 mm 7 mps 579 mmHg 47%
    17:00 +21°C° 0 mm 7 mps 578 mmHg 51%
    18:00 +20°C° 0 mm 6 mps 578 mmHg 59%
    19:00 +18°C° 0 mm 4 mps 578 mmHg 67%
    20:00 +17°C° 0 mm 3 mps 578 mmHg 75%
    21:00 +17°C° 0 mm 2 mps 578 mmHg 77%
    22:00 +16°C° 0 mm 2 mps 578 mmHg 79%
    23:00 +16°C° 0 mm 2 mps 578 mmHg 81%

    11 June, Thursday

    Time Temperature Precipitation Wind Pressure Humidity
    00:00 +15°C° 0 mm 2 mps 578 mmHg 82%
    01:00 +15°C° 0 mm 2 mps 577 mmHg 83%
    02:00 +14°C° 0 mm 1 mps 577 mmHg 84%
    03:00 +14°C° 0 mm 1 mps 577 mmHg 85%
    04:00 +14°C° 0 mm 1 mps 577 mmHg 85%
    05:00 +14°C° 0 mm 1 mps 577 mmHg 86%
    06:00 +15°C° 0 mm 2 mps 578 mmHg 77%
    07:00 +16°C° 0 mm 2 mps 578 mmHg 69%
    08:00 +18°C° 0 mm 3 mps 579 mmHg 61%
    09:00 +19°C° 0 mm 3 mps 580 mmHg 55%
    10:00 +21°C° 0 mm 4 mps 580 mmHg 50%
    11:00 +22°C° 0 mm 5 mps 581 mmHg 45%
    12:00 +23°C° 0.1 mm 5 mps 580 mmHg 46%
    13:00 +23°C° 0.1 mm 6 mps 580 mmHg 47%
    14:00 +23°C° 0.1 mm 6 mps 579 mmHg 48%
    15:00 +22°C° 0.1 mm 6 mps 579 mmHg 52%
    16:00 +21°C° 0.1 mm 6 mps 579 mmHg 56%
    17:00 +19°C° 0.1 mm 6 mps 578 mmHg 60%
    18:00 +17°C° 0 mm 5 mps 578 mmHg 66%
    19:00 +17°C° 0 mm 4 mps 578 mmHg 72%
    20:00 +16°C° 0 mm 3 mps 578 mmHg 78%
    21:00 +15°C° 0 mm 2 mps 578 mmHg 80%
    22:00 +15°C° 0 mm 2 mps 578 mmHg 81%
    23:00 +15°C° 0 mm 1 mps 578 mmHg 83%
    Show more